Regional Weather Roundup
Issued by NWS

Home | Current Version | Previous Version | Text Only | Print | Product List | Glossary Off
Versions: 1 2 3 4 5 6 7 8 9 10 11 12 13 14 15 16 17 18 19 20 21 22 23 24 25 26 27 28 29 30 31 32 33 34 35 36 37 38 39 40 41 42 43 44 45 46 47 48 49 50

000
ASUS44 KMEG 231210
RWRTN
TENNESSEE HOURLY STATE WEATHER ROUNDUP
NATIONAL WEATHER SERVICE MEMPHIS TN
600 AM CST FRI FEB 23 2018

TNZ002-004-019-021-049-052-054-088>092-231300-
WEST TENNESSEE

CITY           SKY/WX    TMP DP  RH WIND       PRES   REMARKS
MEMPHIS INTL   CLOUDY    64  62  93 SW10      30.23R
NWS MEMPHIS      N/A     59 N/A N/A MISG        N/A
JACKSON        MOCLDY    64  62  93 S12       30.24R
DYERSBURG      CLOUDY    58  58 100 CALM      30.24S
COVINGTON      CLOUDY    59  57  94 SW3       30.24R
UNION CITY     CLOUDY    57  57 100 CALM      30.23R
BOLIVAR        CLOUDY    64  61  88 S6        30.25R
PARIS          CLOUDY    63  63 100 S12       30.21R
LEXINGTON      MOCLDY    63  61  94 S5        30.26R
SELMER         PTCLDY    63  61  94 VRB6      30.26S
SAVANNAH       MOCLDY    63  63 100 S5        30.27R
$$

TNZ008-025-027-028-033-062-065-066-231300-
NORTH MIDDLE TENNESSEE

CITY           SKY/WX    TMP DP  RH WIND       PRES   REMARKS
NASHVILLE      FAIR      58  56  93 CALM      30.29F
PORTLAND       MOCLDY    61  59  94 S9        30.27F
CLARKSVILLE    LGT RAIN  62  59  90 S5        30.23F
SMYRNA         CLOUDY    54  54 100 CALM      30.31S
COOKEVILLE     MOCLDY    63  59  88 S6        30.31R
GALLATIN       CLOUDY    57  57 100 CALM      30.31F
CROSSVILLE     FAIR      60  57  89 S7        30.36R
$$

TNZ061-075-076-078-094-096-097-231300-
SOUTH MIDDLE TENNESSEE

CITY           SKY/WX    TMP DP  RH WIND       PRES   REMARKS
FAYETTEVILLE   MOCLDY    64  61  88 S10       30.31S
TULLAHOMA      CLOUDY    63  59  88 S6        30.31S
WINCHESTER     CLEAR     64  61  88 S8        30.33S
MCMINNVILLE    MOCLDY    64  59  82 SW3       30.31R
COLUMBIA       PTCLDY    63  63 100 S3        30.26F
SHELBYVILLE    PTCLDY    63  59  88 S6        30.30S
$$

TNZ017-018-042-046-047-231300-
NORTHEAST TENNESSEE

CITY           SKY/WX    TMP DP  RH WIND       PRES   REMARKS
TRI CITIES     FAIR      51  51 100 CALM      30.39R
ELIZABETHTON   FAIR      55  54  94 CALM      30.40R
$$

TNZ012-013-036-069-073-074-231300-
CENTRAL EAST TENNESSEE

CITY           SKY/WX    TMP DP  RH WIND       PRES   REMARKS
KNOXVILLE      MOCLDY    58  57  97 CALM      30.35S
OAK RIDGE      FAIR      58  58 100 SW3       30.37S FOG
DOWNTOWN KNOXV FOG       54  54 100 CALM      30.37S VSB 1/4
GATLINBURG     CLEAR     50  50 100 CALM      30.37S
MORRISTOWN     PTCLDY    54  54 100 CALM      30.37S
JACKSBORO      MOCLDY    59  59 100 CALM      30.38S
$$

TNZ083-085-099-231300-
SOUTHEAST TENNESSEE

CITY           SKY/WX    TMP DP  RH WIND       PRES   REMARKS
CHATTANOOGA    FAIR      57  56  96 CALM      30.35S FOG
$$

SKY/WX REPORTED AS FAIR MEANS FEW OR NO CLOUDS BELOW
12 THOUSAND FEET.





USA.gov is the U.S. government's official web portal to all federal, state and local government web resources and services.